Location: Strawberry
(45.6646°N, 111.9596°W)
Time: 22:30:53
(UTC+00:00)

Courier 1B - Pass Details

Date: 12 October 2022
Orbit: 962 x 1209 km, 28.3° (Epoch: 29 November)

Event Time Altitude Azimuth Distance (km) Brightness Sun altitude
Rises 19:36:14 0° 240° (WSW) 4,105 11.2 36.5°
Reaches altitude 10° 19:39:53 10° 226° (SW) 3,139 11.0 36.4°
Maximum altitude 19:45:23 21° 181° (S) 2,395 11.4 36.3°
Drops below altitude 10° 19:50:47 10° 136° (SE) 3,080 10.6 36.1°
Sets 19:54:20 0° 121° (ESE) 4,006 10.9 36.0°
